Location: Mascot Post Office (historical)
(40.2645°N, 99.5462°W)
Time: 02:01:41
(UTC+00:00)

BREEZE-M DEB (TANK) - Pass Details

Date: 14 July 2020
Orbit: 428 x 13237 km, 46.0° (Epoch: 14 August)

Event Time Altitude Azimuth Distance (km) Brightness Sun altitude
Rises 08:37:10 0° 277° (W) 5,088 7.5 -22.8°
Reaches altitude 10° 08:41:53 10° 285° (WNW) 2,948 6.4 -22.3°
Maximum altitude 08:47:11 38° 354° (N) 899 4.3 -21.8°
Drops below altitude 10° 08:50:02 10° 66° (ENE) 1,577 5.9 -21.6°
Sets 08:51:47 0° 77° (ENE) 2,388 6.8 -21.4°
